Home > Weather > Erftstadt > Past weeks

Flag for Germany Weather for the Past 2 Weeks in Erftstadt, North Rhine-Westphalia, Germany

Now
55 °F

Refreshingly cool.


Feels Like: 55 °F
Forecast: 49 / 74 °F
Wind: 3 mph from North

Location: Noervenich

Current Time: May 6, 2016 at 12:16:21 AM

Latest Report: May 5, 2016 at 11:20 PM


Visibility: 5 mi

Pressure: 30.07 "Hg

Humidity: 59%

Dew Point: 41 °F

Location of ErftstadtLocation

Historic Weather in Erftstadt — Graph

°F

Erftstadt Temperature Yesterday

Maximum temperature yesterday: 66 °F (at 3:20 PM)
Minimum temperature yesterday: 37 °F (at 5:20 AM)
Average temperature yesterday: 54 °F

High & Low Weather Summary for the Past Weeks

 TemperatureHumidityPressure
High68 °F (Apr 21, 4:20 PM)100% (Apr 30, 5:20 AM)30.42 "Hg (Apr 30, 5:20 AM)
Low34 °F (Apr 21, 6:20 AM)26% (Apr 21, 4:20 PM)29.53 "Hg (Apr 26, 10:20 AM)
Average47 °F70%30.03 "Hg
* Reported Apr 20 10:20 PM — May 5 10:20 PM, Erftstadt, Weather by CustomWeather, © 2016

Note: Actual official high and low records may vary slightly from our data, if they occured in-between our weather recording intervals... More about our weather records

Advertising

Erftstadt Weather History for the Previous 24 Hours

Scroll right to see more
 ConditionsComfort  
Time TempWeatherWind HumidityBarometerVisibility
10:20 PM
Thu, May 5
57 °FRefreshingly cool.2 mph55%30.07 "Hg6 mi
9:20 PM61 °FRefreshingly cool.2 mph48%30.09 "HgN/A
8:20 PM64 °FMild.5 mph43%30.09 "HgN/A
7:20 PM66 °FMild.6 mph40%30.09 "HgN/A
6:20 PM66 °FMild.8 mph37%30.09 "HgN/A
5:20 PM66 °FMild.9 mph40%30.12 "HgN/A
4:20 PM66 °FMild.8 mph37%30.15 "HgN/A
3:20 PM66 °FMild.7 mph37%30.18 "HgN/A
2:20 PM64 °FPartly sunny.6 mph40%30.21 "HgN/A
1:20 PM63 °FPartly sunny.8 mph39%30.21 "HgN/A
12:20 PM61 °FPartly sunny.9 mph36%30.24 "HgN/A
11:20 AM59 °FPartly sunny.8 mph39%30.27 "HgN/A
10:20 AM57 °FPartly sunny.7 mph44%30.27 "HgN/A
8:20 AM46 °FScattered clouds.3 mph71%30.30 "HgN/A
7:20 AM43 °FPartly sunny.1 mph71%30.30 "HgN/A
6:20 AM37 °FPassing clouds.2 mph87%30.33 "HgN/A
5:20 AM37 °FPassing clouds.1 mph87%30.33 "HgN/A
4:20 AM39 °FPassing clouds.2 mph81%30.33 "HgN/A
3:20 AM39 °FPassing clouds.2 mph81%30.33 "HgN/A
2:20 AM41 °FPassing clouds.2 mph76%30.33 "HgN/A
1:20 AM43 °FPassing clouds.2 mph71%30.33 "HgN/A
12:20 AM45 °FPassing clouds.2 mph66%30.33 "HgN/A
Weather by CustomWeather, © 2016

See weather overviewHow to use our weather pages